When you browse on this site, cookies collect data to enhance your experience and personalize the content and advertising you see.
Visit our Privacy Policy to learn more. By continuing to use the site, you agree to this use of cookies and data.
  • In United Kingdom
  • List of Countries
  • For 7 days
  • Water Temperature
  • Satellite Maps
  • Weather Map
  • Weather Widgets
  • user-avatar
    Login

    Hourly Weather Aberdeen

    Today, 18 June, Tuesday

    Time Temperature Precipitation Wind Pressure Humidity
    00:00 +8°C° 0 mm 2 mps 749 mmHg 92%
    01:00 +8°C° 0 mm 2 mps 749 mmHg 93%
    02:00 +7°C° 0 mm 2 mps 749 mmHg 94%
    03:00 +7°C° 0 mm 2 mps 749 mmHg 95%
    04:00 +8°C° 0 mm 2 mps 749 mmHg 95%
    05:00 +9°C° 0 mm 3 mps 749 mmHg 94%
    06:00 +10°C° 0 mm 3 mps 748 mmHg 94%
    07:00 +11°C° 0.1 mm 4 mps 748 mmHg 89%
    08:00 +12°C° 0.1 mm 5 mps 748 mmHg 84%
    09:00 +12°C° 0.1 mm 7 mps 748 mmHg 79%
    10:00 +12°C° 0 mm 7 mps 748 mmHg 77%
    11:00 +14°C° 0 mm 7 mps 749 mmHg 75%
    12:00 +14°C° 0 mm 7 mps 749 mmHg 74%
    13:00 +14°C° 0 mm 7 mps 749 mmHg 74%
    14:00 +14°C° 0 mm 6 mps 749 mmHg 74%
    15:00 +14°C° 0 mm 6 mps 749 mmHg 75%
    16:00 +14°C° 0 mm 6 mps 749 mmHg 76%
    17:00 +14°C° 0 mm 6 mps 749 mmHg 77%
    18:00 +14°C° 0 mm 5 mps 749 mmHg 78%
    19:00 +12°C° 0 mm 4 mps 749 mmHg 82%
    20:00 +11°C° 0 mm 4 mps 749 mmHg 87%
    21:00 +10°C° 0 mm 3 mps 749 mmHg 91%
    22:00 +9°C° 0 mm 3 mps 749 mmHg 92%
    23:00 +8°C° 0 mm 2 mps 749 mmHg 93%

    Tomorrow, 19 June, Wednesday

    Time Temperature Precipitation Wind Pressure Humidity
    00:00 +8°C° 0 mm 2 mps 749 mmHg 93%
    01:00 +7°C° 0 mm 2 mps 748 mmHg 94%
    02:00 +7°C° 0 mm 2 mps 748 mmHg 94%
    03:00 +7°C° 0 mm 2 mps 748 mmHg 94%
    04:00 +8°C° 0 mm 2 mps 748 mmHg 93%
    05:00 +9°C° 0 mm 2 mps 747 mmHg 92%
    06:00 +10°C° 0 mm 2 mps 747 mmHg 91%
    07:00 +12°C° 0 mm 2 mps 747 mmHg 86%
    08:00 +13°C° 0 mm 2 mps 747 mmHg 81%
    09:00 +14°C° 0 mm 3 mps 747 mmHg 76%
    10:00 +14°C° 0.2 mm 3 mps 747 mmHg 76%
    11:00 +15°C° 0.2 mm 4 mps 747 mmHg 76%
    12:00 +15°C° 0.2 mm 4 mps 747 mmHg 76%
    13:00 +15°C° 0.5 mm 4 mps 746 mmHg 76%
    14:00 +15°C° 0.5 mm 4 mps 746 mmHg 76%
    15:00 +15°C° 0.5 mm 4 mps 746 mmHg 76%
    16:00 +15°C° 0.2 mm 4 mps 746 mmHg 78%
    17:00 +15°C° 0.2 mm 4 mps 746 mmHg 79%
    18:00 +14°C° 0.2 mm 3 mps 746 mmHg 80%
    19:00 +13°C° 0 mm 3 mps 746 mmHg 82%
    20:00 +11°C° 0 mm 3 mps 746 mmHg 84%
    21:00 +10°C° 0 mm 3 mps 746 mmHg 86%
    22:00 +10°C° 0 mm 3 mps 746 mmHg 86%
    23:00 +9°C° 0 mm 3 mps 746 mmHg 87%

    Day after tomorrow, 20 June, Thursday

    Time Temperature Precipitation Wind Pressure Humidity
    00:00 +9°C° 0 mm 3 mps 746 mmHg 87%
    01:00 +8°C° 0 mm 3 mps 746 mmHg 89%
    02:00 +8°C° 0 mm 2 mps 745 mmHg 91%
    03:00 +7°C° 0 mm 2 mps 745 mmHg 94%
    04:00 +8°C° 0 mm 3 mps 745 mmHg 92%
    05:00 +8°C° 0 mm 3 mps 745 mmHg 90%
    06:00 +8°C° 0 mm 4 mps 745 mmHg 89%
    07:00 +9°C° 0 mm 5 mps 745 mmHg 85%
    08:00 +10°C° 0 mm 5 mps 746 mmHg 82%
    09:00 +10°C° 0 mm 6 mps 746 mmHg 79%
    10:00 +11°C° 0.1 mm 6 mps 746 mmHg 76%
    11:00 +13°C° 0.1 mm 6 mps 746 mmHg 73%
    12:00 +14°C° 0.1 mm 6 mps 746 mmHg 70%
    13:00 +14°C° 0.2 mm 6 mps 747 mmHg 70%
    14:00 +14°C° 0.2 mm 6 mps 747 mmHg 69%
    15:00 +14°C° 0.2 mm 7 mps 747 mmHg 68%
    16:00 +14°C° 0.1 mm 6 mps 747 mmHg 69%
    17:00 +14°C° 0.1 mm 6 mps 748 mmHg 71%
    18:00 +13°C° 0.1 mm 5 mps 748 mmHg 72%
    19:00 +12°C° 0 mm 4 mps 749 mmHg 75%
    20:00 +10°C° 0 mm 4 mps 749 mmHg 78%
    21:00 +8°C° 0 mm 3 mps 750 mmHg 82%
    22:00 +8°C° 0 mm 3 mps 750 mmHg 82%
    23:00 +7°C° 0 mm 3 mps 750 mmHg 83%

    21 June, Friday

    Time Temperature Precipitation Wind Pressure Humidity
    00:00 +5°C° 0 mm 3 mps 750 mmHg 83%
    01:00 +6°C° 0 mm 2 mps 751 mmHg 84%
    02:00 +6°C° 0 mm 2 mps 751 mmHg 85%
    03:00 +5°C° 0 mm 2 mps 751 mmHg 86%
    04:00 +6°C° 0 mm 2 mps 751 mmHg 84%
    05:00 +7°C° 0 mm 2 mps 751 mmHg 83%
    06:00 +8°C° 0 mm 2 mps 752 mmHg 81%
    07:00 +9°C° 0 mm 2 mps 752 mmHg 77%
    08:00 +10°C° 0 mm 2 mps 752 mmHg 73%
    09:00 +12°C° 0 mm 3 mps 753 mmHg 69%
    10:00 +12°C° 0.2 mm 3 mps 753 mmHg 69%
    11:00 +13°C° 0.2 mm 3 mps 753 mmHg 68%
    12:00 +14°C° 0.2 mm 3 mps 753 mmHg 68%
    13:00 +14°C° 0.3 mm 3 mps 753 mmHg 69%
    14:00 +14°C° 0.3 mm 3 mps 753 mmHg 70%
    15:00 +14°C° 0.3 mm 4 mps 753 mmHg 71%
    16:00 +14°C° 0.3 mm 4 mps 753 mmHg 73%
    17:00 +14°C° 0.3 mm 4 mps 753 mmHg 75%
    18:00 +13°C° 0.3 mm 3 mps 753 mmHg 77%
    19:00 +12°C° 0.1 mm 3 mps 753 mmHg 79%
    20:00 +10°C° 0.1 mm 3 mps 754 mmHg 81%
    21:00 +9°C° 0.1 mm 3 mps 754 mmHg 83%
    22:00 +8°C° 0 mm 3 mps 754 mmHg 84%
    23:00 +7°C° 0 mm 2 mps 754 mmHg 85%

    22 June, Saturday

    Time Temperature Precipitation Wind Pressure Humidity
    00:00 +6°C° 0 mm 2 mps 755 mmHg 86%
    01:00 +6°C° 0 mm 2 mps 755 mmHg 88%
    02:00 +5°C° 0 mm 2 mps 755 mmHg 89%
    03:00 +5°C° 0 mm 2 mps 755 mmHg 90%
    04:00 +6°C° 0 mm 2 mps 755 mmHg 88%
    05:00 +7°C° 0 mm 2 mps 755 mmHg 86%
    06:00 +8°C° 0 mm 2 mps 756 mmHg 85%
    07:00 +10°C° 0 mm 2 mps 756 mmHg 78%
    08:00 +11°C° 0 mm 3 mps 756 mmHg 71%
    09:00 +12°C° 0 mm 3 mps 756 mmHg 64%
    10:00 +13°C° 0.1 mm 3 mps 756 mmHg 63%
    11:00 +14°C° 0.1 mm 3 mps 756 mmHg 63%
    12:00 +14°C° 0.1 mm 3 mps 756 mmHg 63%
    13:00 +16°C° 0.2 mm 3 mps 756 mmHg 64%
    14:00 +16°C° 0.2 mm 3 mps 756 mmHg 65%
    15:00 +16°C° 0.2 mm 3 mps 757 mmHg 67%
    16:00 +16°C° 0.2 mm 3 mps 757 mmHg 70%
    17:00 +14°C° 0.2 mm 3 mps 757 mmHg 73%
    18:00 +14°C° 0.2 mm 3 mps 757 mmHg 77%
    19:00 +13°C° 0.1 mm 3 mps 757 mmHg 79%
    20:00 +11°C° 0.1 mm 3 mps 758 mmHg 82%
    21:00 +10°C° 0.1 mm 2 mps 758 mmHg 84%
    22:00 +9°C° 0 mm 2 mps 758 mmHg 85%
    23:00 +8°C° 0 mm 2 mps 758 mmHg 85%

    23 June, Sunday

    Time Temperature Precipitation Wind Pressure Humidity
    00:00 +9°C° 0 mm 1 mps 759 mmHg 86%
    01:00 +9°C° 0 mm 1 mps 759 mmHg 86%
    02:00 +9°C° 0 mm 1 mps 759 mmHg 86%
    03:00 +8°C° 0 mm 1 mps 759 mmHg 86%
    04:00 +9°C° 0 mm 1 mps 759 mmHg 86%
    05:00 +10°C° 0 mm 1 mps 759 mmHg 85%
    06:00 +10°C° 0 mm 1 mps 760 mmHg 85%
    07:00 +12°C° 0 mm 1 mps 760 mmHg 81%
    08:00 +13°C° 0 mm 1 mps 760 mmHg 77%
    09:00 +14°C° 0 mm 1 mps 760 mmHg 73%
    10:00 +14°C° 0.1 mm 2 mps 760 mmHg 73%
    11:00 +15°C° 0.1 mm 2 mps 761 mmHg 73%
    12:00 +14°C° 0.1 mm 3 mps 761 mmHg 73%
    13:00 +14°C° 0.1 mm 3 mps 761 mmHg 73%
    14:00 +14°C° 0.1 mm 3 mps 761 mmHg 73%
    15:00 +14°C° 0.1 mm 3 mps 761 mmHg 73%
    16:00 +14°C° 0 mm 3 mps 761 mmHg 76%
    17:00 +13°C° 0 mm 3 mps 761 mmHg 79%
    18:00 +12°C° 0 mm 3 mps 761 mmHg 82%
    19:00 +12°C° 0 mm 3 mps 761 mmHg 85%
    20:00 +12°C° 0 mm 2 mps 762 mmHg 87%
    21:00 +10°C° 0 mm 2 mps 762 mmHg 90%
    22:00 +10°C° 0 mm 1 mps 762 mmHg 89%
    23:00 +10°C° 0 mm 1 mps 762 mmHg 89%
    Show more